"startDT [UTC]","vpos","CH4 [ppm]","stdev(CH4) [ppm]","CO2 [ppm]","stdev(CO2) [ppm]","H2O [ppm]","stdev(H2O)","p_LGR [torr]","T_LGR [C]","mt1_LGR [us]","mt2_LGR [us]","T_ECpre [C]","T_EC1 [C]","T_EC2 [C]","p_inlet [hPa]","p_in [hPa]","p_out [hPa]","T_inlet [C]","RH_inlet [%]","dwpt_inlet [C]","T_vent [C]","RH_vent [%]","dwpt_vent [C]","flow_vent [l min-1]","flow_inlet [l min-1]","dwpt_sample [C]","T_room [C]"
2012-06-06 00:55:00,0.0,,,,,,,,,,,10.43,14.76,16.10,-42,562,-905,13.2,32.3,-3.0,13.3,60.4,5.8,5.73,2.58,-40.7,12.2
2012-06-06 00:56:00,0.0,1.8366,0.0111,395.16,8.75,-1.0,0.0,138.53,13.84,24.59,36.30,9.62,14.62,16.45,-42,563,-906,13.3,32.4,-2.9,13.4,60.9,6.0,5.73,2.54,-40.7,12.5
2012-06-06 00:57:00,0.0,1.8415,0.0012,397.48,0.19,-1.0,0.0,138.50,13.87,24.58,36.28,8.40,14.43,16.75,-42,564,-905,13.4,32.6,-2.7,13.4,61.1,6.1,5.73,2.51,-40.7,12.9
2012-06-06 00:58:00,0.0,1.8433,0.0011,397.62,0.21,-1.0,0.0,138.47,13.92,24.59,36.28,6.67,14.17,16.99,-42,565,-905,13.5,32.7,-2.6,13.5,61.2,6.2,5.73,2.55,-40.9,13.2
2012-06-06 00:59:00,0.0,1.8456,0.0014,397.91,0.25,-1.0,0.0,138.45,13.97,24.59,36.27,4.39,13.81,17.16,-42,566,-905,13.5,32.5,-2.6,13.6,61.2,6.2,5.73,2.56,-41.3,13.6
2012-06-06 01:00:00,1.0,1.8601,0.0078,385.20,8.92,-1.0,0.0,138.44,14.02,24.57,36.27,2.24,12.64,17.23,-42,624,-905,13.6,32.6,-2.6,13.6,61.3,6.3,5.73,2.54,-40.9,14.0
2012-06-06 01:01:00,1.0,1.8691,0.0010,375.08,0.26,-1.0,0.0,138.42,14.08,24.58,36.28,0.53,10.47,17.22,-42,623,-905,13.6,32.6,-2.5,13.7,61.3,6.4,5.73,2.54,-40.6,14.4
2012-06-06 01:02:00,1.0,1.8698,0.0010,375.30,0.20,-1.0,0.0,138.41,14.15,24.59,36.28,-0.10,8.01,17.17,-43,622,-905,13.7,32.6,-2.5,13.7,61.4,6.4,5.73,2.52,-40.5,14.8
2012-06-06 01:03:00,1.0,1.8713,0.0010,375.51,0.17,-1.0,0.0,138.40,14.21,24.58,36.28,0.13,5.63,17.08,-43,622,-905,13.7,32.4,-2.5,13.8,61.4,6.5,5.73,2.64,-40.5,15.2
2012-06-06 01:04:00,1.0,1.8726,0.0011,375.60,0.19,-1.0,0.0,138.39,14.27,24.58,36.27,0.98,3.38,17.01,-43,622,-905,13.8,32.7,-2.3,13.8,61.4,6.5,5.73,2.45,-40.4,15.6
2012-06-06 01:05:00,1.0,1.8746,0.0009,375.73,0.21,-1.0,0.0,138.38,14.33,24.58,36.26,0.85,1.31,16.97,-43,622,-905,13.9,32.6,-2.3,13.9,61.5,6.6,5.73,2.67,-40.3,15.9
2012-06-06 01:06:00,1.0,1.8774,0.0015,375.59,0.27,-1.0,0.0,138.37,14.40,24.58,36.29,0.79,-0.64,16.95,-44,622,-905,13.9,32.6,-2.3,13.9,61.5,6.6,5.73,2.56,-40.2,16.3
2012-06-06 01:07:00,4.0,1.8350,0.0285,381.48,3.97,-1.0,0.0,138.36,14.46,24.58,36.28,0.84,-2.52,16.95,-44,635,-905,13.9,32.3,-2.3,14.0,61.5,6.7,5.73,2.43,-40.1,16.6
2012-06-06 01:08:00,4.0,1.8045,0.0011,386.46,0.22,-1.0,0.0,138.36,14.52,24.58,36.27,0.88,-4.13,16.95,-43,633,-905,14.0,32.5,-2.2,14.0,61.5,6.7,5.73,2.41,-40.0,16.9
2012-06-06 01:09:00,4.0,1.8050,0.0010,386.71,0.20,-1.0,0.0,138.35,14.58,24.58,36.27,0.93,-5.69,16.97,-43,633,-905,14.1,32.6,-2.1,14.1,61.4,6.8,5.73,2.40,-39.8,17.2
2012-06-06 01:10:00,4.0,1.8059,0.0011,386.79,0.17,-1.0,0.0,138.35,14.64,24.58,36.27,0.94,-7.09,16.99,-44,632,-905,14.1,32.3,-2.2,14.1,60.7,6.6,5.73,2.49,-39.7,17.5
2012-06-06 01:11:00,4.0,1.8067,0.0011,386.90,0.19,-1.0,0.0,138.34,14.70,24.58,36.27,0.93,-8.33,17.00,-44,632,-905,14.2,32.2,-2.1,14.2,59.1,6.3,5.73,2.66,-39.5,17.8
2012-06-06 01:12:00,4.0,1.8076,0.0010,387.13,0.23,-1.0,0.0,138.34,14.76,24.58,36.26,0.93,-9.54,17.03,-44,632,-905,14.3,32.2,-2.1,14.2,42.3,1.3,5.73,2.56,-39.4,18.0
2012-06-06 01:13:00,4.0,1.8086,0.0009,387.12,0.23,-1.0,0.0,138.33,14.81,24.58,36.26,0.88,-10.65,17.05,-43,631,-905,14.4,32.2,-2.0,14.3,22.0,-7.2,5.73,2.48,-39.2,18.3
2012-06-06 01:14:00,5.0,1.7093,0.0639,364.20,14.68,-1.0,0.0,138.33,14.87,24.58,36.28,0.86,-11.74,17.07,-44,624,-905,14.5,32.2,-1.9,14.4,17.2,-10.2,5.73,2.58,-39.0,18.5
2012-06-06 01:15:00,5.0,1.6415,0.0008,348.64,0.17,-1.0,0.0,138.33,14.93,24.59,36.28,0.89,-12.57,17.09,-44,623,-905,14.5,32.4,-1.8,14.4,14.5,-12.3,5.73,2.54,-38.8,18.7
2012-06-06 01:16:00,5.0,1.6426,0.0010,348.66,0.20,-1.0,0.0,138.32,14.99,24.58,36.28,0.93,-13.49,17.11,-44,636,-906,14.6,31.9,-1.9,14.5,12.4,-14.1,5.73,2.48,-38.7,18.9
2012-06-06 01:17:00,5.0,1.6430,0.0008,348.60,0.18,-1.0,0.0,138.32,15.05,24.58,36.29,0.85,-14.48,17.13,-44,638,-905,14.7,32.1,-1.8,14.6,10.9,-15.6,5.73,2.55,-38.5,19.1
2012-06-06 01:18:00,5.0,1.6436,0.0009,348.78,0.16,-1.0,0.0,138.31,15.11,24.58,36.28,0.87,-15.41,17.10,-44,638,-905,14.8,32.2,-1.6,14.7,9.8,-16.8,5.73,2.55,-38.3,19.3
2012-06-06 01:19:00,5.0,1.6438,0.0009,348.86,0.21,-1.0,0.0,138.31,15.17,24.59,36.27,0.91,-16.16,17.13,-44,638,-906,14.9,32.3,-1.5,14.7,9.0,-17.8,5.73,2.53,-38.1,19.4
2012-06-06 01:20:00,5.0,1.6442,0.0009,348.84,0.19,-1.0,0.0,138.31,15.22,24.59,36.28,0.93,-16.94,17.19,-44,640,-905,15.0,32.3,-1.5,14.8,8.3,-18.7,5.73,2.51,-37.9,19.6
2012-06-06 01:21:00,2.0,1.7591,0.0743,374.67,16.80,-1.0,0.0,138.30,15.28,24.59,36.27,0.97,-17.66,17.22,-44,608,-905,15.1,31.6,-1.7,14.9,7.7,-19.5,5.73,2.51,-37.8,19.8
2012-06-06 01:22:00,2.0,1.8402,0.0010,393.16,0.25,-1.0,0.0,138.30,15.35,24.58,36.26,0.94,-18.29,17.23,-44,609,-906,15.2,30.9,-1.9,15.0,7.2,-20.2,5.73,2.49,-37.5,19.9
2012-06-06 01:23:00,2.0,1.8403,0.0011,393.33,0.20,-1.0,0.0,138.30,15.40,24.59,36.25,0.94,-18.91,17.25,-44,609,-906,15.3,31.0,-1.8,15.1,6.7,-20.9,5.73,2.47,-37.4,20.1
2012-06-06 01:24:00,2.0,1.8410,0.0010,393.44,0.16,-1.0,0.0,138.30,15.46,24.58,36.25,0.92,-19.48,17.27,-44,609,-906,15.4,30.8,-1.7,15.2,6.2,-21.9,5.73,2.49,-37.2,20.3
2012-06-06 01:25:00,2.0,1.8410,0.0010,393.59,0.19,-1.0,0.0,138.29,15.53,24.58,36.25,0.85,-20.02,17.29,-44,610,-906,15.5,30.3,-1.9,15.3,5.7,-22.6,5.73,2.51,-37.0,20.5
2012-06-06 01:26:00,2.0,1.8423,0.0010,393.60,0.19,-1.0,0.0,138.29,15.59,24.58,36.25,0.87,-20.52,17.30,-44,610,-906,15.6,30.5,-1.7,15.4,5.4,-23.1,5.73,2.49,-36.8,20.6
2012-06-06 01:27:00,2.0,1.8415,0.0009,393.53,0.20,-1.0,0.0,138.29,15.65,24.58,36.26,0.87,-20.99,17.33,-44,610,-906,15.7,29.7,-2.0,15.5,5.1,-23.7,5.73,2.44,-36.6,20.8
2012-06-06 01:28:00,0.0,1.8588,0.0118,397.60,2.76,-1.0,0.0,138.28,15.71,24.58,36.25,0.87,-21.45,17.34,-45,561,-906,15.8,29.0,-2.2,15.6,4.9,-24.2,5.73,2.51,-36.4,21.0
2012-06-06 01:29:00,0.0,1.8721,0.0011,400.64,0.21,-1.0,0.0,138.28,15.77,24.59,36.24,0.87,-21.84,17.35,-45,562,-906,15.9,28.7,-2.2,15.7,4.7,-24.6,5.73,2.48,-36.2,21.1
2012-06-06 01:30:00,0.0,1.8728,0.0009,400.64,0.19,-1.0,0.0,138.28,15.83,24.58,36.25,0.92,-22.22,17.36,-45,563,-906,16.0,28.3,-2.3,15.8,4.5,-25.0,5.73,2.45,-36.1,21.2
2012-06-06 01:31:00,0.0,1.8728,0.0010,400.72,0.27,-1.0,0.0,138.28,15.89,24.58,36.25,0.94,-22.58,17.38,-45,564,-907,16.2,28.5,-2.1,15.9,4.3,-25.4,5.73,2.49,-35.9,21.4
2012-06-06 01:32:00,0.0,1.8732,0.0010,400.67,0.19,-1.0,0.0,138.27,15.96,24.58,36.25,0.92,-22.91,17.40,-45,565,-907,16.3,28.1,-2.2,16.0,4.1,-25.7,5.73,2.44,-35.7,21.5
2012-06-06 01:33:00,0.0,1.8737,0.0009,400.69,0.25,-1.0,0.0,138.27,16.03,24.58,36.25,0.84,-23.22,17.41,-45,566,-907,16.3,28.0,-2.2,16.1,4.0,-26.1,5.73,2.49,-35.6,21.6
2012-06-06 01:34:00,0.0,1.8747,0.0009,400.53,0.23,-1.0,0.0,138.27,16.09,24.58,36.26,0.84,-23.51,17.43,-45,566,-907,16.5,28.1,-2.1,16.2,3.8,-26.4,5.73,2.43,-35.4,21.8
2012-06-06 01:35:00,0.0,1.8751,0.0010,400.48,0.18,-1.0,0.0,138.27,16.15,24.58,36.26,0.84,-23.77,17.45,-45,567,-907,16.6,27.8,-2.1,16.3,3.7,-26.7,5.73,2.45,-35.3,21.9
2012-06-06 01:36:00,0.0,1.8750,0.0008,400.55,0.15,-1.0,0.0,138.27,16.21,24.58,36.25,0.88,-24.02,17.46,-45,568,-907,16.7,28.0,-1.9,16.4,3.6,-27.0,5.73,2.46,-35.1,22.0
2012-06-06 01:37:00,0.0,1.8759,0.0009,400.60,0.20,-1.0,0.0,138.26,16.28,24.58,36.25,0.88,-24.26,17.47,-45,568,-907,16.8,28.0,-1.9,16.5,3.4,-27.5,5.73,2.41,-35.0,22.1
2012-06-06 01:38:00,0.0,1.8759,0.0011,400.47,0.23,-1.0,0.0,138.26,16.35,24.58,36.26,0.92,-24.47,17.50,-45,568,-907,16.9,27.7,-1.9,16.5,3.2,-28.0,5.73,2.46,-34.9,22.3
2012-06-06 01:39:00,0.0,1.8759,0.0010,400.59,0.19,-1.0,0.0,138.26,16.41,24.59,36.25,0.92,-24.67,17.51,-45,568,-907,16.9,27.3,-2.1,16.6,3.1,-28.3,5.73,2.44,-34.7,22.4
2012-06-06 01:40:00,0.0,1.8768,0.0010,400.57,0.19,-1.0,0.0,138.26,16.48,24.58,36.26,0.86,-24.86,17.53,-45,569,-908,17.0,26.8,-2.2,16.7,3.1,-28.5,5.73,2.40,-34.6,22.5
2012-06-06 01:41:00,0.0,1.8765,0.0008,400.61,0.20,-1.0,0.0,138.26,16.55,24.58,36.25,0.82,-25.04,17.53,-45,569,-907,17.1,27.0,-2.0,16.8,3.0,-28.6,5.73,2.44,-34.5,22.6
2012-06-06 01:42:00,0.0,1.8766,0.0008,400.68,0.15,-1.0,0.0,138.25,16.62,24.58,36.25,0.83,-25.19,17.55,-46,568,-908,17.2,27.1,-1.9,16.9,3.0,-28.8,5.73,2.44,-34.4,22.7
2012-06-06 01:43:00,0.0,1.8766,0.0008,400.71,0.21,-1.0,0.0,138.25,16.68,24.58,36.25,0.86,-25.34,17.57,-46,568,-908,17.3,26.9,-1.9,17.0,2.9,-29.0,5.73,2.41,-34.2,22.8
2012-06-06 01:44:00,0.0,1.8768,0.0011,400.78,0.16,-1.0,0.0,138.25,16.75,24.58,36.25,0.88,-25.48,17.58,-46,567,-908,17.4,26.8,-1.9,17.0,2.8,-29.1,5.73,2.40,-34.1,22.9
2012-06-06 01:45:00,0.0,1.8765,0.0008,400.69,0.17,-1.0,0.0,138.25,16.81,24.58,36.25,0.92,-25.62,17.59,-46,567,-908,17.4,26.7,-1.9,17.1,2.8,-29.2,5.73,2.42,-34.0,23.0
2012-06-06 01:46:00,0.0,1.8767,0.0009,400.80,0.21,-1.0,0.0,138.25,16.88,24.58,36.25,0.92,-25.73,17.61,-46,567,-908,17.5,26.4,-2.0,17.2,2.7,-29.4,5.73,2.43,-33.9,23.1
2012-06-06 01:47:00,0.0,1.8768,0.0007,400.66,0.21,-1.0,0.0,138.24,16.95,24.58,36.26,0.86,-25.85,17.62,-46,568,-908,17.6,26.3,-2.0,17.3,2.7,-29.5,5.73,2.42,-33.8,23.2
2012-06-06 01:48:00,0.0,1.8769,0.0009,400.69,0.18,-1.0,0.0,138.24,17.01,24.59,36.25,0.82,-25.95,17.64,-46,568,-908,17.6,26.2,-2.0,17.4,2.6,-29.6,5.73,2.41,-33.7,23.3
2012-06-06 01:49:00,0.0,1.8780,0.0008,400.68,0.21,-1.0,0.0,138.24,17.08,24.58,36.25,0.82,-26.05,17.65,-46,568,-909,17.7,25.9,-2.1,17.5,2.6,-29.7,5.73,2.40,-33.6,23.4
2012-06-06 01:50:00,0.0,1.8784,0.0008,400.73,0.22,-1.0,0.0,138.24,17.15,24.58,36.25,0.87,-26.14,17.67,-46,568,-909,17.8,25.8,-2.1,17.5,2.6,-29.8,5.73,2.39,-33.5,23.4
2012-06-06 01:51:00,0.0,1.8791,0.0008,400.77,0.18,-1.0,0.0,138.24,17.22,24.58,36.25,0.89,-26.22,17.68,-46,568,-909,17.9,25.6,-2.1,17.6,2.5,-29.9,5.73,2.39,-33.4,23.5
2012-06-06 01:52:00,0.0,1.8790,0.0006,400.76,0.17,-1.0,0.0,138.23,17.29,24.58,36.26,0.92,-26.29,17.70,-46,567,-909,18.0,25.7,-2.0,17.7,2.5,-29.9,5.73,2.40,-33.3,23.6
2012-06-06 01:53:00,0.0,1.8791,0.0009,400.79,0.19,-1.0,0.0,138.23,17.36,24.58,36.25,0.92,-26.36,17.71,-46,567,-909,18.0,25.9,-1.8,17.8,2.5,-30.0,5.73,2.39,-33.2,23.7
2012-06-06 01:54:00,0.0,1.8789,0.0009,400.84,0.16,-1.0,0.0,138.23,17.43,24.58,36.26,0.85,-26.43,17.73,-46,567,-909,18.1,25.5,-2.0,17.8,2.4,-30.1,5.73,2.39,-33.1,23.7
2012-06-06 01:55:00,0.0,1.8790,0.0008,400.78,0.16,-1.0,0.0,138.23,17.50,24.59,36.26,0.82,-26.49,17.74,-46,568,-909,18.1,25.3,-2.1,17.9,2.4,-30.2,5.73,2.39,-33.0,23.8
2012-06-06 01:56:00,0.0,1.8801,0.0010,400.88,0.19,-1.0,0.0,138.23,17.57,24.59,36.26,0.84,-26.55,17.76,-46,568,-909,18.2,25.0,-2.1,18.0,2.4,-30.3,5.73,2.39,-32.9,23.9
2012-06-06 01:57:00,0.0,1.8807,0.0009,400.97,0.19,-1.0,0.0,138.23,17.64,24.58,36.26,0.87,-26.60,17.77,-46,568,-909,18.3,24.6,-2.3,18.0,2.4,-30.3,5.73,2.39,-32.8,24.0
2012-06-06 01:58:00,0.0,1.8806,0.0009,400.83,0.19,-1.0,0.0,138.23,17.71,24.58,36.27,0.89,-26.65,17.78,-46,568,-909,18.3,24.5,-2.4,18.1,2.4,-30.3,5.73,2.38,-32.8,24.0
2012-06-06 01:59:00,0.0,1.8803,0.0009,400.91,0.21,-1.0,0.0,138.22,17.77,24.59,36.26,0.93,-26.69,17.79,-46,567,-909,18.4,24.6,-2.3,18.2,2.3,-30.4,5.73,2.38,-32.6,24.1
2012-06-06 02:00:00,0.0,1.8807,0.0010,400.90,0.19,-1.0,0.0,138.21,17.85,24.59,36.27,0.93,-26.73,17.80,-47,567,-909,18.4,24.7,-2.2,18.2,2.3,-30.4,5.73,2.38,-32.4,24.2
2012-06-06 02:01:00,0.0,1.8815,0.0010,400.83,0.16,-1.0,0.0,138.21,17.92,24.59,36.28,0.85,-26.78,17.82,-47,568,-910,18.5,24.7,-2.1,18.3,2.3,-30.4,5.73,2.37,-32.4,24.3
2012-06-06 02:02:00,0.0,1.8824,0.0011,400.94,0.18,-1.0,0.0,138.21,17.99,24.59,36.28,0.85,-26.81,17.83,-47,568,-910,18.5,24.6,-2.1,18.4,2.3,-30.4,5.73,2.38,-32.3,24.3
2012-06-06 02:03:00,0.0,1.8826,0.0010,400.94,0.20,-1.0,0.0,138.21,18.06,24.59,36.27,0.82,-26.84,17.85,-47,568,-910,18.6,24.5,-2.1,18.4,2.3,-30.5,5.73,2.37,-32.2,24.4
2012-06-06 02:04:00,0.0,1.8824,0.0009,400.96,0.19,-1.0,0.0,138.22,18.13,24.59,36.27,0.87,-26.87,17.86,-47,568,-910,18.6,24.4,-2.1,18.4,2.3,-30.6,5.73,2.37,-32.1,24.5
2012-06-06 02:05:00,0.0,1.8825,0.0012,401.04,0.30,-0.8,1.0,138.20,18.20,24.59,36.28,0.88,-26.89,17.87,-47,568,-910,18.7,24.2,-2.2,18.5,2.3,-30.5,5.73,2.37,-32.0,24.5
2012-06-06 02:06:00,0.0,1.8835,0.0010,400.91,0.24,-1.0,0.0,138.20,18.27,24.59,36.28,0.92,-26.92,17.88,-47,568,-910,18.7,24.2,-2.2,18.6,2.2,-30.6,5.73,2.37,-31.9,24.6
2012-06-06 02:07:00,0.0,1.8831,0.0010,401.05,0.22,0.0,8.0,138.20,18.34,24.59,36.28,0.94,-26.94,17.89,-47,568,-910,18.8,23.9,-2.3,18.7,2.2,-30.6,5.73,2.37,-31.8,24.7
2012-06-06 02:08:00,0.0,1.8833,0.0010,400.92,0.18,-1.0,0.0,138.21,18.41,24.59,36.28,0.92,-26.97,17.90,-47,567,-910,18.8,23.9,-2.2,18.7,2.2,-30.6,5.73,2.37,-31.8,24.7
2012-06-06 02:09:00,0.0,1.8831,0.0011,401.02,0.21,-0.8,1.3,138.21,18.48,24.59,36.28,0.85,-26.98,17.92,-47,567,-910,18.9,23.9,-2.2,18.8,2.2,-30.6,5.73,2.37,-31.7,24.8
2012-06-06 02:10:00,0.0,1.8828,0.0008,401.01,0.19,-0.9,0.6,138.21,18.55,24.59,36.29,0.84,-27.00,17.93,-47,568,-910,18.9,23.7,-2.3,18.8,2.2,-30.7,5.73,2.36,-31.6,24.9
2012-06-06 02:11:00,0.0,1.8830,0.0008,401.11,0.19,-1.0,0.0,138.21,18.62,24.59,36.28,0.87,-27.02,17.94,-47,568,-911,19.0,23.6,-2.3,18.9,2.2,-30.7,5.73,2.35,-31.5,24.9
2012-06-06 02:12:00,0.0,1.8834,0.0010,401.04,0.18,-0.6,3.3,138.21,18.69,24.59,36.28,0.88,-27.03,17.95,-47,568,-910,19.0,23.6,-2.2,18.9,2.2,-30.7,5.73,2.35,-31.4,25.0
2012-06-06 02:13:00,0.0,1.8821,0.0009,401.16,0.16,-0.4,2.6,138.20,18.76,24.60,36.28,0.91,-27.04,17.96,-47,568,-911,19.1,23.5,-2.2,19.0,2.2,-30.7,5.73,2.34,-31.4,25.0
2012-06-06 02:14:00,0.0,1.8824,0.0007,401.12,0.21,0.2,5.9,138.20,18.83,24.59,36.28,0.92,-27.06,17.97,-47,568,-911,19.1,23.6,-2.1,19.0,2.1,-30.7,5.73,2.35,-31.3,25.1
2012-06-06 02:15:00,0.0,1.8819,0.0008,401.14,0.18,0.1,5.4,138.20,18.90,24.59,36.28,0.94,-27.07,17.98,-47,568,-911,19.2,23.7,-2.1,19.1,2.1,-30.7,5.73,2.36,-31.2,25.2
2012-06-06 02:16:00,0.0,1.8811,0.0011,401.13,0.18,-0.4,3.3,138.20,18.97,24.59,36.29,0.92,-27.08,17.99,-47,568,-911,19.2,23.9,-1.9,19.1,2.1,-30.7,5.73,2.36,-31.2,25.2
2012-06-06 02:17:00,0.0,1.8817,0.0009,401.13,0.20,-0.9,0.7,138.20,19.03,24.59,36.29,0.87,-27.08,18.00,-47,568,-911,19.3,23.5,-2.1,19.2,2.1,-30.7,5.73,2.36,-31.1,25.3
2012-06-06 02:18:00,0.0,1.8825,0.0009,401.12,0.21,-0.2,4.5,138.20,19.10,24.59,36.29,0.84,-27.09,18.01,-47,568,-911,19.3,23.6,-2.0,19.2,2.1,-30.8,5.73,2.35,-31.0,25.3
2012-06-06 02:19:00,0.0,1.8823,0.0009,401.07,0.22,-0.5,2.9,138.20,19.17,24.59,36.29,0.86,-27.09,18.02,-47,568,-911,19.3,23.4,-2.1,19.3,2.1,-30.9,5.73,2.34,-31.0,25.4
2012-06-06 02:20:00,0.0,1.8814,0.0008,401.23,0.17,0.7,6.1,138.20,19.24,24.59,36.28,0.89,-27.10,18.03,-48,568,-911,19.4,23.5,-2.0,19.3,2.1,-30.9,5.73,2.34,-30.9,25.4
2012-06-06 02:21:00,0.0,1.8810,0.0009,401.10,0.16,-0.0,4.2,138.19,19.30,24.59,36.29,0.91,-27.11,18.04,-47,568,-911,19.4,23.2,-2.1,19.4,2.1,-30.9,5.73,2.34,-30.8,25.5
2012-06-06 02:22:00,0.0,1.8812,0.0009,401.20,0.20,0.4,7.6,138.19,19.38,24.59,36.29,0.93,-27.11,18.05,-48,568,-911,19.5,23.3,-2.1,19.4,2.1,-30.9,5.73,2.35,-30.8,25.5
2012-06-06 02:23:00,0.0,1.8806,0.0009,401.12,0.18,1.1,8.8,138.19,19.44,24.59,36.29,0.94,-27.12,18.06,-48,569,-911,19.5,23.3,-2.0,19.4,2.1,-30.9,5.73,2.35,-30.7,25.6
2012-06-06 02:24:00,0.0,1.8804,0.0008,401.20,0.17,-0.3,3.7,138.19,19.51,24.59,36.29,0.92,-27.12,18.07,-48,568,-912,19.5,23.4,-1.9,19.5,2.1,-30.9,5.73,2.35,-30.7,25.6
2012-06-06 02:25:00,0.0,1.8809,0.0009,401.18,0.18,0.4,6.6,138.19,19.58,24.59,36.29,0.87,-27.12,18.08,-48,569,-912,19.5,23.1,-2.1,19.5,2.0,-30.9,5.73,2.33,-30.6,25.7
2012-06-06 02:26:00,0.0,1.8811,0.0008,401.28,0.19,2.0,9.7,138.19,19.65,24.59,36.28,0.84,-27.12,18.09,-48,569,-912,19.6,22.8,-2.2,19.6,2.0,-31.0,5.73,2.33,-30.5,25.7
2012-06-06 02:27:00,0.0,1.8814,0.0010,401.20,0.19,-0.5,2.4,138.19,19.72,24.59,36.29,0.86,-27.12,18.10,-48,568,-912,19.6,22.9,-2.1,19.6,2.0,-30.9,5.73,2.34,-30.5,25.7
2012-06-06 02:28:00,0.0,1.8817,0.0010,401.32,0.22,-0.0,4.4,138.19,19.79,24.59,36.28,0.88,-27.13,18.10,-48,568,-912,19.7,22.9,-2.1,19.7,2.0,-30.9,5.73,2.35,-30.4,25.8
2012-06-06 02:29:00,0.0,1.8813,0.0009,401.31,0.19,-0.9,0.9,138.19,19.86,24.59,36.29,0.91,-27.12,18.11,-48,568,-912,19.7,23.0,-2.0,19.7,2.0,-31.0,5.73,2.35,-30.4,25.9
2012-06-06 02:30:00,0.0,1.8813,0.0010,401.44,0.20,-0.8,1.4,138.19,19.92,24.59,36.28,0.92,-27.12,18.12,-48,568,-912,19.7,22.6,-2.2,19.7,2.0,-31.0,5.73,2.33,-30.3,25.9
2012-06-06 02:31:00,0.0,1.8815,0.0009,401.40,0.20,-0.5,2.8,138.19,19.99,24.59,36.28,0.94,-27.11,18.13,-48,569,-912,19.7,22.7,-2.2,19.8,2.0,-31.0,5.73,2.32,-30.3,25.9
2012-06-06 02:32:00,0.0,1.8818,0.0011,401.44,0.20,-0.9,1.1,138.19,20.05,24.59,36.28,0.94,-27.12,18.14,-48,569,-912,19.8,22.6,-2.2,19.8,2.0,-31.0,5.73,2.33,-30.2,26.0
2012-06-06 02:33:00,0.0,1.8818,0.0009,401.47,0.21,-0.9,0.8,138.19,20.12,24.59,36.27,0.90,-27.11,18.15,-48,569,-912,19.8,22.8,-2.0,19.8,2.0,-31.0,5.73,2.35,-30.2,26.0
2012-06-06 02:34:00,0.0,1.8817,0.0009,401.39,0.16,-0.8,1.3,138.19,20.18,24.59,36.28,0.83,-27.11,18.16,-48,569,-912,19.8,22.8,-2.0,19.9,2.0,-31.1,5.73,2.34,-30.2,26.0
2012-06-06 02:35:00,0.0,1.8816,0.0008,401.53,0.21,-0.8,1.5,138.18,20.25,24.59,36.27,0.87,-27.11,18.17,-48,569,-913,19.9,22.9,-1.9,19.9,2.0,-31.0,5.73,2.31,-30.1,26.0
2012-06-06 02:36:00,0.0,1.8821,0.0008,401.47,0.22,-0.6,2.2,138.18,20.32,24.59,36.28,0.88,-27.10,18.17,-48,569,-912,19.9,22.8,-2.0,19.9,2.0,-31.1,5.73,2.32,-30.1,26.1
2012-06-06 02:37:00,0.0,1.8823,0.0008,401.39,0.17,-0.7,2.4,138.18,20.39,24.59,36.28,0.90,-27.10,18.19,-48,569,-913,19.9,22.9,-1.9,20.0,2.0,-31.0,5.73,2.34,-30.0,26.2
2012-06-06 02:38:00,0.0,1.8827,0.0009,401.42,0.18,-1.0,0.0,138.18,20.45,24.59,36.28,0.91,-27.10,18.19,-48,569,-913,19.9,23.2,-1.7,20.0,2.0,-31.0,5.73,2.34,-30.0,26.2
2012-06-06 02:39:00,0.0,1.8827,0.0011,401.45,0.19,-0.8,1.9,138.18,20.52,24.59,36.28,0.93,-27.10,18.20,-48,569,-912,20.0,23.3,-1.6,20.0,2.0,-31.0,5.73,2.32,-29.9,26.2
2012-06-06 02:40:00,0.0,1.8828,0.0010,401.49,0.20,-0.1,5.0,138.17,20.58,24.59,36.28,0.94,-27.09,18.21,-48,568,-913,20.0,23.4,-1.5,20.1,1.9,-31.0,5.73,2.31,-29.9,26.2
2012-06-06 02:41:00,0.0,1.8830,0.0009,401.34,0.21,-0.8,1.4,138.18,20.65,24.59,36.29,0.92,-27.08,18.22,-48,569,-913,20.0,23.5,-1.4,20.1,1.9,-31.1,5.73,2.33,-29.9,26.2
2012-06-06 02:42:00,0.0,1.8827,0.0010,401.53,0.16,-0.6,3.4,138.17,20.71,24.59,36.27,0.88,-27.08,18.22,-48,569,-913,20.1,23.7,-1.3,20.1,1.9,-31.1,5.73,2.34,-29.8,26.3
2012-06-06 02:43:00,0.0,1.8829,0.0009,401.57,0.16,-1.0,0.0,138.17,20.77,24.59,36.27,0.86,-27.08,18.23,-48,569,-913,20.1,23.6,-1.3,20.2,1.9,-31.0,5.73,2.32,-29.8,26.3
2012-06-06 02:44:00,0.0,1.8827,0.0009,401.52,0.17,-0.9,0.6,138.17,20.84,24.59,36.28,0.86,-27.07,18.24,-48,569,-913,20.1,23.2,-1.5,20.2,1.9,-31.0,5.73,2.31,-29.8,26.4
2012-06-06 02:45:00,0.0,1.8830,0.0008,401.51,0.20,-0.7,1.9,138.17,20.90,24.59,36.27,0.88,-27.07,18.25,-48,569,-913,20.1,23.3,-1.5,20.2,1.9,-31.0,5.73,2.33,-29.7,26.4
2012-06-06 02:46:00,0.0,1.8833,0.0010,401.57,0.22,-0.5,3.8,138.17,20.96,24.59,36.27,0.91,-27.06,18.25,-48,569,-913,20.1,23.2,-1.5,20.3,1.9,-31.1,5.73,2.33,-29.7,26.4
2012-06-06 02:47:00,0.0,1.8832,0.0007,401.45,0.21,-0.9,1.2,138.17,21.02,24.59,36.27,0.93,-27.06,18.27,-48,569,-913,20.2,23.1,-1.5,20.3,1.9,-31.1,5.73,2.31,-29.6,26.5
2012-06-06 02:48:00,0.0,1.8836,0.0010,401.60,0.21,-1.0,0.0,138.16,21.09,24.59,36.27,0.94,-27.05,18.27,-48,569,-913,20.2,23.0,-1.6,20.3,1.9,-31.1,5.73,2.31,-29.6,26.5
2012-06-06 02:49:00,0.0,1.8835,0.0008,401.51,0.21,-0.8,1.2,138.16,21.15,24.59,36.27,0.99,-27.04,18.22,-48,569,-913,20.2,23.0,-1.5,20.4,1.9,-31.1,5.73,2.33,-29.6,26.5
2012-06-06 02:50:00,0.0,1.8841,0.0009,401.58,0.20,-0.2,4.3,138.17,21.21,24.58,36.27,1.05,-27.03,16.92,-49,569,-913,20.3,23.1,-1.5,20.4,1.9,-31.0,5.73,2.33,-29.5,26.5
2012-06-06 02:51:00,0.0,1.8839,0.0009,401.68,0.20,0.2,5.3,138.16,21.27,24.59,36.26,1.09,-27.03,14.66,-49,569,-913,20.3,23.1,-1.5,20.4,1.9,-31.0,5.73,2.30,-29.5,26.6
2012-06-06 02:52:00,0.0,1.8837,0.0010,401.63,0.15,0.3,4.2,138.16,21.33,24.59,36.27,0.99,-27.03,12.25,-49,569,-913,20.3,22.8,-1.6,20.5,1.9,-31.1,5.73,2.31,-29.4,26.6
2012-06-06 02:53:00,0.0,1.8838,0.0007,401.60,0.15,0.4,5.0,138.16,21.39,24.59,36.27,0.94,-27.05,9.85,-49,569,-914,20.4,22.7,-1.6,20.5,1.9,-31.2,5.73,2.33,-29.4,26.7
2012-06-06 02:54:00,0.0,1.8841,0.0007,401.58,0.17,-0.2,5.1,138.15,21.46,24.58,36.27,0.94,-27.06,7.54,-49,569,-913,20.4,23.0,-1.4,20.5,1.9,-31.1,5.73,2.32,-29.4,26.7
2012-06-06 02:55:00,0.0,1.8841,0.0008,401.61,0.20,3.1,13.8,138.15,21.52,24.58,36.27,1.03,-27.06,5.32,-49,569,-914,20.4,23.6,-1.1,20.5,1.9,-31.1,5.73,2.29,-29.4,26.8
2012-06-06 02:56:00,0.0,1.8841,0.0009,401.58,0.17,-1.0,0.3,138.15,21.58,24.58,36.27,1.05,-27.06,3.21,-49,569,-914,20.4,23.6,-1.1,20.6,1.9,-31.1,5.73,2.31,-29.3,26.8
2012-06-06 02:57:00,0.0,1.8839,0.0008,401.63,0.22,0.8,7.8,138.15,21.64,24.59,36.27,0.94,-27.04,1.20,-49,569,-914,20.4,23.8,-0.9,20.6,1.9,-31.1,5.73,2.33,-29.3,26.8
2012-06-06 02:58:00,0.0,1.8840,0.0009,401.62,0.21,0.5,7.9,138.15,21.71,24.58,36.27,0.96,-27.04,-0.69,-49,570,-914,20.5,23.4,-1.2,20.6,1.9,-31.1,5.73,2.30,-29.3,26.9
2012-06-06 02:59:00,0.0,1.8842,0.0008,401.59,0.21,-0.0,6.5,138.15,21.77,24.58,36.27,1.05,-27.05,-2.44,-49,570,-914,20.5,23.4,-1.1,20.7,1.9,-31.1,5.73,2.29,-29.4,26.9
2012-06-06 03:00:00,0.0,1.8843,0.0009,401.64,0.19,1.4,6.7,138.15,21.83,24.58,36.27,1.01,-27.04,-3.91,-49,570,-914,20.5,23.6,-1.0,20.7,1.9,-31.0,5.73,2.32,-29.3,27.0
2012-06-06 03:01:00,0.0,1.8847,0.0009,401.60,0.16,0.3,6.2,138.14,21.89,24.58,36.27,0.93,-27.04,-5.48,-49,570,-914,20.5,23.4,-1.1,20.7,1.9,-31.1,5.73,2.31,-29.2,27.0
2012-06-06 03:02:00,0.0,1.8846,0.0010,401.70,0.20,-0.5,2.5,138.14,21.95,24.59,36.27,0.99,-27.04,-7.02,-49,570,-914,20.6,23.1,-1.3,20.7,1.8,-31.2,5.73,2.28,-29.2,27.0
2012-06-06 03:03:00,0.0,1.8847,0.0008,401.70,0.18,-0.3,2.6,138.14,22.01,24.58,36.26,1.04,-27.04,-8.43,-49,570,-914,20.6,23.1,-1.3,20.7,1.8,-31.2,5.73,2.30,-29.2,27.1
2012-06-06 03:04:00,0.0,1.8847,0.0008,401.66,0.19,-0.2,4.7,138.14,22.07,24.58,36.26,0.98,-27.04,-9.72,-49,570,-914,20.6,22.8,-1.4,20.8,1.8,-31.2,5.73,2.32,-29.2,27.1
2012-06-06 03:05:00,0.0,1.8846,0.0010,401.67,0.23,-0.4,3.7,138.14,22.13,24.59,36.27,0.92,-27.04,-10.94,-49,570,-914,20.6,22.6,-1.5,20.8,1.9,-31.1,5.73,2.28,-29.1,27.1
2012-06-06 03:06:00,0.0,1.8848,0.0009,401.69,0.19,0.1,4.6,138.14,22.19,24.59,36.26,0.98,-27.04,-12.08,-49,570,-914,20.6,22.7,-1.4,20.8,1.8,-31.1,5.73,2.29,-29.2,27.1
2012-06-06 03:07:00,0.0,1.8846,0.0009,401.72,0.18,1.6,8.8,138.14,22.25,24.58,36.26,1.05,-27.04,-13.18,-49,571,-914,20.7,22.9,-1.3,20.8,1.8,-31.1,5.73,2.32,-29.1,27.1
2012-06-06 03:08:00,0.0,1.8847,0.0010,401.70,0.20,1.6,8.6,138.14,22.31,24.59,36.26,0.98,-27.05,-14.17,-49,570,-915,20.7,22.7,-1.4,20.9,1.8,-31.2,5.73,2.29,-29.1,27.1
2012-06-06 03:09:00,0.0,1.8845,0.0008,401.63,0.16,1.7,7.8,138.14,22.37,24.58,36.26,0.93,-27.05,-15.16,-49,570,-914,20.7,22.5,-1.5,20.9,1.8,-31.2,5.73,2.28,-29.1,27.2
2012-06-06 03:10:00,0.0,1.8842,0.0010,401.62,0.23,1.4,7.8,138.14,22.43,24.59,36.26,0.95,-27.05,-16.10,-49,570,-915,20.7,22.6,-1.4,20.9,1.8,-31.2,5.73,2.32,-29.1,27.2
2012-06-06 03:11:00,0.0,1.8842,0.0009,401.65,0.18,1.4,9.3,138.14,22.49,24.58,36.26,1.01,-27.06,-16.93,-49,569,-914,20.8,22.4,-1.5,20.9,1.8,-31.2,5.73,2.29,-29.0,27.2
2012-06-06 03:12:00,0.0,1.8844,0.0009,401.59,0.22,0.3,6.1,138.13,22.54,24.59,36.26,1.02,-27.06,-17.74,-49,569,-915,20.8,22.2,-1.6,21.0,1.8,-31.2,5.73,2.27,-29.0,27.3
2012-06-06 03:13:00,0.0,1.8846,0.0010,401.69,0.17,1.2,7.2,138.13,22.60,24.58,36.25,0.96,-27.07,-18.51,-49,569,-915,20.8,21.7,-1.9,21.0,1.8,-31.2,5.73,2.32,-29.0,27.3
2012-06-06 03:14:00,0.0,1.8841,0.0008,401.54,0.19,0.3,5.5,138.13,22.66,24.59,36.26,0.93,-27.08,-19.26,-49,569,-915,20.8,21.8,-1.9,21.0,1.8,-31.2,5.73,2.30,-29.0,27.3
2012-06-06 03:15:00,0.0,1.8841,0.0011,401.60,0.19,0.8,8.1,138.13,22.71,24.59,36.25,0.97,-27.08,-19.96,-49,569,-915,20.8,21.7,-1.9,21.0,1.8,-31.3,5.73,2.27,-29.0,27.4
2012-06-06 03:16:00,0.0,1.8845,0.0010,401.55,0.18,0.6,6.7,138.13,22.77,24.58,36.25,1.01,-27.09,-20.61,-49,569,-915,20.8,21.9,-1.7,21.1,1.8,-31.3,5.73,2.31,-28.9,27.4